This is the latest recevied weather packets stored in our database for station/object F4IDZ-11. If no packets are shown the sender has not sent any weather packets the latest 10 day(s).
| Time | Temp. | Humidity | Pressure | Rain* | Wind** | Luminosity | Snow |
|---|---|---|---|---|---|---|---|
| 1777467163 | 25° C | 43% | 994.7 hPa | - | - | - | - |
| 1777466263 | 24.44° C | 43% | 994.8 hPa | - | - | - | - |
| 1777465363 | 23.33° C | 44% | 995 hPa | - | - | - | - |
| 1777464462 | 22.22° C | 44% | 995 hPa | - | - | - | - |
| 1777463562 | 21.67° C | 45% | 995 hPa | - | - | - | - |
| 1777462662 | 20.56° C | 45% | 995.1 hPa | - | - | - | - |
| 1777461762 | 20° C | 46% | 995.3 hPa | - | - | - | - |
| 1777460862 | 18.89° C | 46% | 995.3 hPa | - | - | - | - |
| 1777459962 | 18.33° C | 47% | 995.3 hPa | - | - | - | - |
| 1777459061 | 17.78° C | 47% | 995.4 hPa | - | - | - | - |
| 1777458161 | 17.22° C | 47% | 995.5 hPa | - | - | - | - |
| 1777457261 | 16.67° C | 47% | 995.6 hPa | - | - | - | - |
| 1777456361 | 16.67° C | 48% | 995.6 hPa | - | - | - | - |
| 1777455461 | 16.11° C | 48% | 995.7 hPa | - | - | - | - |
| 1777454560 | 15.56° C | 48% | 995.7 hPa | - | - | - | - |
| 1777453660 | 15° C | 48% | 995.5 hPa | - | - | - | - |
| 1777452760 | 15° C | 48% | 995.5 hPa | - | - | - | - |
| 1777451860 | 14.44° C | 49% | 995.4 hPa | - | - | - | - |
| 1777450960 | 14.44° C | 49% | 995.5 hPa | - | - | - | - |
| 1777450060 | 13.89° C | 49% | 995.5 hPa | - | - | - | - |
| 1777449160 | 13.89° C | 49% | 995.5 hPa | - | - | - | - |
| 1777448259 | 13.33° C | 49% | 995.4 hPa | - | - | - | - |
| 1777447359 | 13.33° C | 49% | 995.1 hPa | - | - | - | - |
| 1777446459 | 13.33° C | 49% | 995.2 hPa | - | - | - | - |
| 1777445559 | 12.78° C | 49% | 995.1 hPa | - | - | - | - |
* Rain since midnight (hover to see other rain measurements)
** Current wind speed in m/s (hover to see current wind gust speed)